Location: Kalberh�ni
(46.4610°N, 7.2453°E)
Time: 08:57:35
(UTC+00:00)

deb Kosmos-2227 - Pass Details

Date: 11 August 2022
Orbit: 774 x 865 km, 70.9° (Epoch: 26 September)

Event Time Altitude Azimuth Distance (km) Brightness Sun altitude
Rises 01:08:29 0° 325° (NW) 3,341 ? -24.8°
Reaches altitude 10° 01:11:07 10° 315° (NW) 2,420 ? -24.6°
Enters shadow 01:14:52 29° 276° (W) 1,473 ? -24.4°
